| time (UTC) | temp F | wind direction | speed MPH | gust MPH | rain 1hr in | rain 24hr in | rain mn in | humidity % | barometer mb |
| 20260504204503 | 81 | 125 | 4.0 | 10.0 | 0.00 | 0.00 | 0.00 | 24 | 1003.3 |
| 20260504203603 | 81 | 103 | 3.0 | 9.0 | 0.00 | 0.00 | 0.00 | 24 | 1003.4 |
| 20260504202703 | 81 | 100 | 3.0 | 11.0 | 0.00 | 0.00 | 0.00 | 25 | 1003.7 |
| 20260504201803 | 80 | 102 | 5.0 | 10.0 | 0.00 | 0.00 | 0.00 | 26 | 1003.8 |
| 20260504201115 | 81 | 109 | 5.0 | 11.0 | 0.00 | 0.00 | 0.00 | 26 | 1003.8 |
| 20260504200003 | 81 | 118 | 3.0 | 13.0 | 0.00 | 0.00 | 0.00 | 25 | 1003.9 |
| 20260504195403 | 81 | 130 | 2.0 | 9.0 | 0.00 | 0.00 | 0.00 | 26 | 1004.0 |
| 20260504194503 | 81 | 125 | 4.0 | 11.0 | 0.00 | 0.00 | 0.00 | 24 | 1004.0 |
| 20260504193603 | 80 | 106 | 5.0 | 11.0 | 0.00 | 0.00 | 0.00 | 25 | 1004.2 |
| 20260504192703 | 80 | 107 | 5.0 | 11.0 | 0.00 | 0.00 | 0.00 | 26 | 1004.2 |
| 20260504191803 | 79 | 107 | 7.0 | 13.0 | 0.00 | 0.00 | 0.00 | 27 | 1004.2 |
| 20260504191116 | 79 | 108 | 5.0 | 11.0 | 0.00 | 0.00 | 0.00 | 29 | 1004.3 |
| 20260504190003 | 79 | 100 | 3.0 | 9.0 | 0.00 | 0.00 | 0.00 | 29 | 1004.4 |
| 20260504185403 | 79 | 96 | 4.0 | 9.0 | 0.00 | 0.00 | 0.00 | 27 | 1004.4 |
| 20260504184712 | 79 | 86 | 4.0 | 11.0 | 0.00 | 0.00 | 0.00 | 27 | 1004.4 |
| 20260504183815 | 80 | 87 | 2.0 | 9.0 | 0.00 | 0.00 | 0.00 | 28 | 1004.4 |
| 20260504182703 | 80 | 92 | 2.0 | 11.0 | 0.00 | 0.00 | 0.00 | 25 | 1004.4 |
| 20260504181803 | 80 | 88 | 1.0 | 11.0 | 0.00 | 0.00 | 0.00 | 28 | 1004.6 |
| 20260504180903 | 80 | 85 | 1.0 | 11.0 | 0.00 | 0.00 | 0.00 | 27 | 1004.7 |
| 20260504180003 | 78 | 79 | 3.0 | 11.0 | 0.00 | 0.00 | 0.00 | 28 | 1004.7 |
| 20260504175616 | 78 | 83 | 3.0 | 11.0 | 0.00 | 0.00 | 0.00 | 28 | 1004.7 |
| 20260504174713 | 79 | 80 | 2.0 | 12.0 | 0.00 | 0.00 | 0.00 | 28 | 1004.8 |
| 20260504173815 | 80 | 67 | 1.0 | 11.0 | 0.00 | 0.00 | 0.00 | 27 | 1004.7 |
| 20260504172913 | 80 | 63 | 3.0 | 11.0 | 0.00 | 0.00 | 0.00 | 27 | 1004.8 |
| 20260504171803 | 81 | 11 | 2.0 | 10.0 | 0.00 | 0.00 | 0.00 | 27 | 1004.9 |
| 20260504170903 | 80 | 21 | 3.0 | 10.0 | 0.00 | 0.00 | 0.00 | 30 | 1004.9 |
| 20260504170215 | 79 | 29 | 2.0 | 9.0 | 0.00 | 0.00 | 0.00 | 30 | 1005.0 |
| 20260504160215 | 73 | 16 | 2.0 | 9.0 | 0.00 | 0.00 | 0.00 | 43 | 1005.1 |
| 20260504150903 | 69 | 360 | 2.0 | 9.0 | 0.00 | 0.00 | 0.00 | 48 | 1005.2 |
| 20260504140903 | 61 | 338 | 2.0 | 7.0 | 0.00 | 0.00 | 0.00 | 59 | 1005.3 |
| 20260504140217 | 61 | 331 | 2.0 | 8.0 | 0.00 | 0.00 | 0.00 | 60 | 1005.3 |
| 20260504130217 | 54 | 286 | 1.0 | 3.0 | 0.00 | 0.00 | 0.00 | 75 | 1004.4 |
| 20260504110213 | 50 | 0 | 0.0 | 0.0 | 0.00 | 0.00 | 0.00 | 74 | 1003.6 |
| 20260504081113 | 56 | 88 | 1.0 | 5.0 | 0.00 | 0.00 | 0.00 | 65 | 1004.9 |
| 20260504080215 | 55 | 0 | 0.0 | 2.0 | 0.00 | 0.00 | 0.00 | 66 | 1005.0 |
| 20260504070216 | 57 | 88 | 3.0 | 7.0 | 0.00 | 0.00 | 0.00 | 62 | 1005.3 |
| 20260504050005 | 64 | 99 | 7.0 | 11.0 | 0.00 | 0.00 | 0.00 | 45 | 1006.6 |
| 20260504045614 | 64 | 100 | 7.0 | 11.0 | 0.00 | 0.00 | 0.00 | 45 | 1006.8 |
| 20260504044716 | 64 | 93 | 8.0 | 12.0 | 0.00 | 0.00 | 0.00 | 45 | 1006.9 |
| 20260504043813 | 64 | 89 | 9.0 | 14.0 | 0.00 | 0.00 | 0.00 | 44 | 1007.1 |
| 20260504042916 | 64 | 86 | 7.0 | 14.0 | 0.00 | 0.00 | 0.00 | 44 | 1007.1 |
| 20260504041803 | 64 | 87 | 5.0 | 12.0 | 0.00 | 0.00 | 0.00 | 44 | 1007.3 |
| 20260504041115 | 63 | 76 | 4.0 | 11.0 | 0.00 | 0.00 | 0.00 | 45 | 1007.4 |
| 20260504040003 | 64 | 79 | 7.0 | 11.0 | 0.00 | 0.00 | 0.00 | 43 | 1007.7 |
| 20260504035614 | 65 | 81 | 7.0 | 12.0 | 0.00 | 0.00 | 0.00 | 43 | 1007.7 |
| 20260504034717 | 66 | 80 | 8.0 | 14.0 | 0.00 | 0.00 | 0.00 | 41 | 1007.7 |
| 20260504033603 | 67 | 78 | 8.0 | 18.0 | 0.00 | 0.00 | 0.00 | 38 | 1007.9 |
| 20260504032916 | 67 | 74 | 5.0 | 16.0 | 0.00 | 0.00 | 0.00 | 40 | 1007.9 |
| 20260504031803 | 66 | 77 | 4.0 | 15.0 | 0.00 | 0.00 | 0.00 | 41 | 1008.1 |
| 20260504030903 | 66 | 68 | 2.0 | 10.0 | 0.00 | 0.00 | 0.00 | 41 | 1007.9 |
| 20260504030003 | 67 | 76 | 6.0 | 14.0 | 0.00 | 0.00 | 0.00 | 41 | 1008.0 |
| 20260504025615 | 67 | 76 | 7.0 | 14.0 | 0.00 | 0.00 | 0.00 | 41 | 1008.1 |
| 20260504024503 | 66 | 78 | 1.0 | 6.0 | 0.00 | 0.00 | 0.00 | 43 | 1008.0 |
| 20260504023815 | 66 | 77 | 1.0 | 8.0 | 0.00 | 0.00 | 0.00 | 43 | 1007.9 |
| 20260504022917 | 67 | 75 | 2.0 | 7.0 | 0.00 | 0.00 | 0.00 | 42 | 1007.9 |
| 20260504021803 | 68 | 78 | 3.0 | 13.0 | 0.00 | 0.00 | 0.00 | 42 | 1007.9 |
| 20260504021117 | 68 | 49 | 1.0 | 7.0 | 0.00 | 0.00 | 0.00 | 42 | 1007.8 |
| 20260504020003 | 68 | 27 | 1.0 | 3.0 | 0.00 | 0.00 | 0.00 | 42 | 1008.1 |
| 20260504015403 | 69 | 82 | 1.0 | 5.0 | 0.00 | 0.00 | 0.00 | 42 | 1007.8 |
| 20260504014503 | 69 | 19 | 1.0 | 7.0 | 0.00 | 0.00 | 0.00 | 41 | 1007.7 |
| 20260504013603 | 70 | 0 | 0.0 | 4.0 | 0.00 | 0.00 | 0.00 | 41 | 1007.7 |
| 20260504012703 | 71 | 57 | 1.0 | 7.0 | 0.00 | 0.00 | 0.00 | 40 | 1007.6 |
| 20260504012015 | 71 | 48 | 1.0 | 7.0 | 0.00 | 0.00 | 0.00 | 39 | 1007.5 |
| 20260504011117 | 72 | 75 | 1.0 | 6.0 | 0.00 | 0.00 | 0.00 | 38 | 1007.3 |
| 20260504010215 | 72 | 7 | 1.0 | 8.0 | 0.00 | 0.00 | 0.00 | 38 | 1007.4 |
| 20260504005403 | 73 | 71 | 2.0 | 10.0 | 0.00 | 0.00 | 0.00 | 37 | 1007.4 |
| 20260504004713 | 74 | 86 | 8.0 | 15.0 | 0.00 | 0.00 | 0.00 | 36 | 1007.2 |
| 20260504003816 | 74 | 93 | 8.0 | 14.0 | 0.00 | 0.00 | 0.00 | 35 | 1007.1 |
| 20260504002913 | 75 | 94 | 8.0 | 15.0 | 0.00 | 0.00 | 0.00 | 35 | 1007.1 |
| 20260504001803 | 76 | 94 | 8.0 | 15.0 | 0.00 | 0.00 | 0.00 | 33 | 1007.2 |
| 20260504001113 | 76 | 95 | 9.0 | 15.0 | 0.00 | 0.00 | 0.00 | 32 | 1007.3 |
| 20260504000003 | 77 | 95 | 11.0 | 18.0 | 0.00 | 0.00 | 0.00 | 30 | 1007.4 |
| 20260503235403 | 78 | 96 | 11.0 | 18.0 | 0.00 | 0.00 | 0.00 | 30 | 1007.6 |
| 20260503234714 | 78 | 95 | 9.0 | 16.0 | 0.00 | 0.00 | 0.00 | 30 | 1007.7 |
| 20260503233816 | 79 | 87 | 12.0 | 19.0 | 0.00 | 0.00 | 0.00 | 30 | 1007.8 |
| 20260503232704 | 79 | 81 | 11.0 | 17.0 | 0.00 | 0.00 | 0.00 | 30 | 1007.7 |
| 20260503232016 | 79 | 83 | 11.0 | 18.0 | 0.00 | 0.00 | 0.00 | 28 | 1007.7 |
| 20260503230903 | 80 | 75 | 8.0 | 17.0 | 0.00 | 0.00 | 0.00 | 27 | 1007.8 |
| 20260503230003 | 82 | 82 | 5.0 | 18.0 | 0.00 | 0.00 | 0.00 | 28 | 1008.0 |
| 20260503225612 | 82 | 81 | 4.0 | 18.0 | 0.00 | 0.00 | 0.00 | 27 | 1008.0 |
| 20260503224715 | 83 | 43 | 4.0 | 14.0 | 0.00 | 0.00 | 0.00 | 25 | 1008.0 |
| 20260503223812 | 83 | 8 | 3.0 | 10.0 | 0.00 | 0.00 | 0.00 | 25 | 1008.0 |
| 20260503222703 | 84 | 46 | 1.0 | 7.0 | 0.00 | 0.00 | 0.00 | 22 | 1008.2 |
| 20260503222017 | 86 | 0 | 0.0 | 4.0 | 0.00 | 0.00 | 0.00 | 21 | 1008.3 |
| 20260503221114 | 85 | 239 | 1.0 | 5.0 | 0.00 | 0.00 | 0.00 | 17 | 1008.5 |
| 20260503220003 | 85 | 197 | 3.0 | 8.0 | 0.00 | 0.00 | 0.00 | 16 | 1008.8 |
| 20260503215403 | 86 | 178 | 1.0 | 8.0 | 0.00 | 0.00 | 0.00 | 18 | 1008.8 |
| 20260503214503 | 85 | 136 | 1.0 | 5.0 | 0.00 | 0.00 | 0.00 | 17 | 1008.9 |
| 20260503213813 | 85 | 146 | 1.0 | 5.0 | 0.00 | 0.00 | 0.00 | 17 | 1009.0 |
| 20260503212703 | 85 | 176 | 5.0 | 9.0 | 0.00 | 0.00 | 0.00 | 16 | 1009.3 |
| 20260503211803 | 84 | 180 | 5.0 | 12.0 | 0.00 | 0.00 | 0.00 | 17 | 1009.5 |
| 20260503211115 | 84 | 172 | 7.0 | 12.0 | 0.00 | 0.00 | 0.00 | 19 | 1009.7 |
| 20260503210003 | 84 | 226 | 5.0 | 10.0 | 0.00 | 0.00 | 0.00 | 16 | 1009.9 |
| 20260503205614 | 84 | 210 | 6.0 | 12.0 | 0.00 | 0.00 | 0.00 | 17 | 1009.9 |